"Platform","Saginaw Bay ReCON Buoy"
"NDBC ID","45163"
"Latitude (deg)",43.9859
"Longitude (deg)",-83.5953
"Water Depth (m)",13.5
"Sensor Device","System Power Controller board voltage input"
"Sensor Type","Solar panel voltage"
"Sensor Units","voltage"
"Measurement","A sample"
"Time means","Time at sample (UTC time zone)"

"Note:","This data was collected for research purposes."
"Note:","Minimal quality checking has been performed so data may contain known or unknown errors."
"Note:","Data provided by NOAA. Please credit NOAA."
"Note:","For more info see www.glerl.noaa.gov/res/recon"

"Time (UTC)","Solar Panel"
"YYYY/MM/DD HH:MM","volts"
2017/05/03 18:18, 17.94
2017/05/03 18:38, 18.68
2017/05/03 18:58, 18.11
2017/05/03 19:18, 18.50
2017/05/03 19:38, 19.49
2017/05/03 19:58, 18.55
2017/05/03 20:18, 16.57
2017/05/03 20:38, 18.71
2017/05/03 20:58, 19.28
2017/05/03 21:18, 18.94
2017/05/03 21:38, 19.27
2017/05/03 21:58, 18.82
2017/05/03 22:18, 18.28
2017/05/03 22:38, 18.98
2017/05/03 22:58, 19.18
2017/05/03 23:18, 18.78
2017/05/03 23:38, 17.70
2017/05/03 23:58, 13.09
2017/05/04 00:18, 12.32
2017/05/04 00:38, 12.23
2017/05/04 00:58, 12.05
2017/05/04 01:18, 0.38
2017/05/04 01:38, 0.38
2017/05/04 01:58, 0.38
2017/05/04 02:18, 0.38
2017/05/04 02:38, 0.38
2017/05/04 02:58, 0.38
2017/05/04 03:18, 0.38
2017/05/04 03:38, 0.38
2017/05/04 03:58, 0.38
2017/05/04 04:18, 0.38
2017/05/04 04:38, 0.38
2017/05/04 04:58, 0.38
2017/05/04 05:18, 0.38
2017/05/04 05:38, 0.38
2017/05/04 05:58, 0.38
2017/05/04 06:18, 0.38
2017/05/04 06:38, 0.38
2017/05/04 06:58, 0.38
2017/05/04 07:18, 0.38
2017/05/04 07:38, 0.38
2017/05/04 07:58, 0.38
2017/05/04 08:18, 0.38
2017/05/04 08:38, 0.38
2017/05/04 08:58, 0.38
2017/05/04 09:18, 0.38
2017/05/04 09:38, 0.38
2017/05/04 09:58, 1.80
2017/05/04 10:18, 11.76
2017/05/04 10:38, 11.82
2017/05/04 10:58, 11.95
2017/05/04 11:18, 12.07
2017/05/04 11:38, 12.23
2017/05/04 11:58, 12.33
2017/05/04 12:18, 12.62
2017/05/04 12:38, 12.92
2017/05/04 12:58, 13.12
2017/05/04 13:18, 13.30
2017/05/04 13:38, 13.40
2017/05/04 13:58, 13.53
2017/05/04 14:18, 13.71
2017/05/04 14:38, 13.89
2017/05/04 14:58, 14.01
2017/05/04 15:18, 13.99
2017/05/04 15:38, 14.52
2017/05/04 15:58, 15.32
2017/05/04 16:18, 16.12
2017/05/04 16:38, 16.21
2017/05/04 16:58, 15.43
2017/05/04 17:18, 15.66
2017/05/04 17:38, 15.46
2017/05/04 17:58, 16.31
2017/05/04 18:18, 16.16
2017/05/04 18:38, 15.87
2017/05/04 18:58, 15.12
2017/05/04 19:18, 14.82
2017/05/04 19:38, 14.40
2017/05/04 19:58, 14.20
2017/05/04 20:18, 14.22
2017/05/04 20:38, 14.20
2017/05/04 20:58, 13.82
2017/05/04 21:18, 13.57
2017/05/04 21:38, 13.12
2017/05/04 21:58, 12.92
2017/05/04 22:18, 12.62
2017/05/04 22:38, 12.62
2017/05/04 22:58, 12.34
2017/05/04 23:18, 12.32
2017/05/04 23:38, 12.23
2017/05/04 23:58, 12.23
2017/05/05 00:18, 12.23
2017/05/05 00:38, 12.23
2017/05/05 00:58, 12.08
2017/05/05 01:18, 0.38
2017/05/05 01:38, 0.38
2017/05/05 01:58, 0.38
2017/05/05 02:18, 0.38
2017/05/05 02:38, 0.38
2017/05/05 02:58, 0.38
2017/05/05 03:18, 0.38
2017/05/05 03:38, 0.38
2017/05/05 03:58, 0.38
2017/05/05 04:18, 0.38
2017/05/05 04:38, 0.38
2017/05/05 04:58, 0.38
2017/05/05 05:18, 0.38
2017/05/05 05:38, 0.38
2017/05/05 05:58, 0.38
2017/05/05 06:18, 0.38
2017/05/05 06:38, 0.38
2017/05/05 06:58, 0.38
2017/05/05 07:18, 0.38
2017/05/05 07:38, 0.38
2017/05/05 07:58, 0.38
2017/05/05 08:18, 0.38
2017/05/05 08:38, 0.38
2017/05/05 08:58, 0.38
2017/05/05 09:18, 0.38
2017/05/05 09:38, 0.38
2017/05/05 09:58, 1.86
2017/05/05 10:18, 11.74
2017/05/05 10:38, 11.78
2017/05/05 10:58, 11.94
2017/05/05 11:18, 12.23
2017/05/05 11:38, 12.62
2017/05/05 11:58, 12.96
2017/05/05 12:18, 13.34
2017/05/05 12:38, 13.81
2017/05/05 12:58, 14.71
2017/05/05 13:18, 18.50
2017/05/05 13:38, 18.28
2017/05/05 13:58, 17.38
2017/05/05 14:18, 18.18
2017/05/05 14:38, 17.91
2017/05/05 14:58, 18.17
2017/05/05 15:18, 17.86
2017/05/05 15:38, 18.14
2017/05/05 15:58, 18.70
2017/05/05 16:18, 17.75
2017/05/05 16:38, 18.34
2017/05/05 16:58, 18.31
2017/05/05 17:18, 19.34
2017/05/05 17:38, 18.77
2017/05/05 17:58, 19.68
2017/05/05 18:18, 17.78
2017/05/05 18:38, 17.60
2017/05/05 18:58, 18.06
2017/05/05 19:18, 19.19
2017/05/05 19:38, 18.62
2017/05/05 19:58, 18.13
2017/05/05 20:18, 18.20
2017/05/05 20:38, 18.64
2017/05/05 20:58, 18.73
2017/05/05 21:18, 17.77
2017/05/05 21:38, 18.33
2017/05/05 21:58, 16.87
2017/05/05 22:18, 16.26
2017/05/05 22:38, 15.70
2017/05/05 22:58, 17.18
2017/05/05 23:18, 14.50
2017/05/05 23:38, 15.40
2017/05/05 23:58, 16.63
2017/05/06 00:18, 13.06
2017/05/06 00:38, 12.61
2017/05/06 00:58, 12.22
2017/05/06 01:18, 1.05
2017/05/06 01:38, 0.38
2017/05/06 01:58, 0.38
2017/05/06 02:18, 0.38
2017/05/06 02:38, 0.38
2017/05/06 02:58, 0.38
2017/05/06 03:18, 0.38
2017/05/06 03:38, 0.38
2017/05/06 03:58, 0.38
2017/05/06 04:18, 0.38
2017/05/06 04:38, 0.38
2017/05/06 04:58, 0.38
2017/05/06 05:18, 0.38
2017/05/06 05:38, 0.38
2017/05/06 05:58, 0.38
2017/05/06 06:18, 0.38
2017/05/06 06:38, 0.38
2017/05/06 06:58, 0.38
2017/05/06 07:18, 0.38
2017/05/06 07:38, 0.38
2017/05/06 07:58, 0.38
2017/05/06 08:18, 0.38
2017/05/06 08:38, 0.38
2017/05/06 08:58, 0.38
2017/05/06 09:18, 0.38
2017/05/06 09:38, 0.38
2017/05/06 09:58, 4.92
2017/05/06 10:18, 11.81
2017/05/06 10:38, 11.99
2017/05/06 10:58, 12.23
2017/05/06 11:18, 13.12
2017/05/06 11:38, 18.16
2017/05/06 11:58, 18.69
2017/05/06 12:18, 18.89
2017/05/06 12:38, 16.53
2017/05/06 12:58, 18.77
2017/05/06 13:18, 19.04
2017/05/06 13:38, 19.42
2017/05/06 13:58, 18.96
2017/05/06 14:18, 19.25
2017/05/06 14:38, 19.31
2017/05/06 14:58, 19.25
2017/05/06 15:18, 17.78
2017/05/06 15:38, 18.92
2017/05/06 15:58, 18.22
2017/05/06 16:18, 17.63
2017/05/06 16:38, 19.69
2017/05/06 16:58, 18.58
2017/05/06 17:18, 17.98
2017/05/06 17:38, 19.18
2017/05/06 17:58, 18.74
2017/05/06 18:18, 17.95
2017/05/06 18:38, 18.27
2017/05/06 18:58, 17.86
2017/05/06 19:18, 20.25
2017/05/06 19:38, 17.89
2017/05/06 19:58, 17.64
2017/05/06 20:18, 19.47
2017/05/06 20:38, 17.39
2017/05/06 20:58, 16.79
2017/05/06 21:18, 17.03
2017/05/06 21:38, 19.89
2017/05/06 21:58, 16.49
2017/05/06 22:18, 19.88
2017/05/06 22:38, 19.21
2017/05/06 22:58, 19.83
2017/05/06 23:18, 18.29
2017/05/06 23:38, 16.92
2017/05/06 23:58, 18.34
2017/05/07 00:18, 16.78
2017/05/07 00:38, 13.00
2017/05/07 00:58, 12.12
2017/05/07 01:18, 1.56
2017/05/07 01:38, 0.38
2017/05/07 01:58, 0.38
2017/05/07 02:18, 0.38
2017/05/07 02:38, 0.38
2017/05/07 02:58, 0.38
2017/05/07 03:18, 0.38
2017/05/07 03:38, 0.38
2017/05/07 03:58, 0.38
2017/05/07 04:18, 0.38
2017/05/07 04:38, 0.38
2017/05/07 04:58, 0.38
2017/05/07 05:18, 0.38
2017/05/07 05:38, 0.38
2017/05/07 05:58, 0.38
2017/05/07 06:18, 0.38
2017/05/07 06:38, 0.38
2017/05/07 06:58, 0.38
2017/05/07 07:18, 0.38
2017/05/07 07:38, 0.38
2017/05/07 07:58, 0.38
2017/05/07 08:18, 0.38
2017/05/07 08:38, 0.38
2017/05/07 08:58, 0.38
2017/05/07 09:18, 0.38
2017/05/07 09:38, 0.78
2017/05/07 09:58, 11.74
2017/05/07 10:18, 11.83
2017/05/07 10:38, 13.55
2017/05/07 10:58, 15.53
2017/05/07 11:18, 18.51
2017/05/07 11:38, 19.02
2017/05/07 11:58, 19.35
2017/05/07 12:18, 19.44
2017/05/07 12:38, 19.63
2017/05/07 12:58, 19.66
2017/05/07 13:18, 19.71
2017/05/07 13:38, 19.68
2017/05/07 13:58, 19.63
2017/05/07 14:18, 19.65
2017/05/07 14:38, 19.55
2017/05/07 14:58, 19.56
2017/05/07 15:18, 19.21
2017/05/07 15:38, 19.36
2017/05/07 15:58, 19.09
2017/05/07 16:18, 19.06
2017/05/07 16:38, 19.24
2017/05/07 16:58, 19.28
2017/05/07 17:18, 19.34
2017/05/07 17:38, 19.07
2017/05/07 17:58, 19.27
2017/05/07 18:18, 19.47
2017/05/07 18:38, 19.64
2017/05/07 18:58, 19.81
2017/05/07 19:18, 20.00
2017/05/07 19:38, 19.99
2017/05/07 19:58, 20.18
2017/05/07 20:18, 20.10
2017/05/07 20:38, 20.28
2017/05/07 20:58, 20.53
2017/05/07 21:18, 20.59
2017/05/07 21:38, 20.61
2017/05/07 21:58, 20.57
2017/05/07 22:18, 20.64
2017/05/07 22:38, 20.55
2017/05/07 22:58, 20.64
2017/05/07 23:18, 20.05
2017/05/07 23:38, 20.34
2017/05/07 23:58, 19.68
2017/05/08 00:18, 18.23
2017/05/08 00:38, 13.64
2017/05/08 00:58, 12.23
2017/05/08 01:18, 2.54
2017/05/08 01:38, 0.38
2017/05/08 01:58, 0.38
2017/05/08 02:18, 0.38
2017/05/08 02:38, 0.38
2017/05/08 02:58, 0.38
2017/05/08 03:18, 0.38
2017/05/08 03:38, 0.38
2017/05/08 03:58, 0.38
2017/05/08 04:18, 0.38
2017/05/08 04:38, 0.38
2017/05/08 04:58, 0.38
2017/05/08 05:18, 0.38
2017/05/08 05:38, 0.38
2017/05/08 05:58, 0.38
2017/05/08 06:18, 0.38
2017/05/08 06:38, 0.38
2017/05/08 06:58, 0.38
2017/05/08 07:18, 0.38
2017/05/08 07:38, 0.38
2017/05/08 07:58, 0.38
2017/05/08 08:18, 0.38
2017/05/08 08:38, 0.38
2017/05/08 08:58, 0.38
2017/05/08 09:18, 0.38
2017/05/08 09:38, 1.27
2017/05/08 09:58, 11.74
2017/05/08 10:18, 12.05
2017/05/08 10:38, 13.90
2017/05/08 10:58, 16.66
2017/05/08 11:18, 18.66
2017/05/08 11:38, 19.27
2017/05/08 11:58, 19.71
2017/05/08 12:18, 19.82
2017/05/08 12:38, 19.93
2017/05/08 12:58, 19.69
2017/05/08 13:18, 19.68
2017/05/08 13:38, 19.87
2017/05/08 13:58, 19.51
2017/05/08 14:18, 19.88
2017/05/08 14:38, 19.80
2017/05/08 14:58, 19.75
2017/05/08 15:18, 19.62
2017/05/08 15:38, 19.62
2017/05/08 15:58, 19.23
2017/05/08 16:18, 19.04
2017/05/08 16:38, 19.06
2017/05/08 16:58, 18.85
2017/05/08 17:18, 19.21
2017/05/08 17:38, 19.17
2017/05/08 17:58, 19.28
2017/05/08 18:18, 19.69
2017/05/08 18:38, 19.73
2017/05/08 18:58, 19.87
2017/05/08 19:18, 19.43
2017/05/08 19:38, 19.88
2017/05/08 19:58, 20.01
2017/05/08 20:18, 19.75
2017/05/08 20:38, 20.15
2017/05/08 20:58, 20.42
2017/05/08 21:18, 20.62
2017/05/08 21:38, 20.52
2017/05/08 21:58, 20.40
2017/05/08 22:18, 20.62
2017/05/08 22:38, 20.22
2017/05/08 22:58, 20.35
2017/05/08 23:18, 20.05
2017/05/08 23:38, 20.13
2017/05/08 23:58, 19.71
2017/05/09 00:18, 18.27
2017/05/09 00:38, 12.64
2017/05/09 00:58, 12.13
2017/05/09 01:18, 1.86
2017/05/09 01:38, 0.38
2017/05/09 01:58, 0.38
2017/05/09 02:18, 0.38
2017/05/09 02:38, 0.38
2017/05/09 02:58, 0.38
2017/05/09 03:18, 0.38
2017/05/09 03:38, 0.38
2017/05/09 03:58, 0.38
2017/05/09 04:18, 0.38
2017/05/09 04:38, 0.38
2017/05/09 04:58, 0.38
2017/05/09 05:18, 0.38
2017/05/09 05:38, 0.38
2017/05/09 05:58, 0.38
2017/05/09 06:18, 0.38
2017/05/09 06:38, 0.38
2017/05/09 06:58, 0.38
2017/05/09 07:18, 0.38
2017/05/09 07:38, 0.38
2017/05/09 07:58, 0.38
2017/05/09 08:18, 0.38
2017/05/09 08:38, 0.38
2017/05/09 08:58, 0.38
2017/05/09 09:18, 0.38
2017/05/09 09:38, 1.77
2017/05/09 09:58, 11.74
2017/05/09 10:18, 12.23
2017/05/09 10:38, 13.99
2017/05/09 10:58, 16.57
2017/05/09 11:18, 18.60
2017/05/09 11:38, 19.10
2017/05/09 11:58, 19.35
2017/05/09 12:18, 19.43
2017/05/09 12:38, 19.31
2017/05/09 12:58, 18.96
2017/05/09 13:18, 19.41
2017/05/09 13:38, 19.46
2017/05/09 13:58, 19.40
2017/05/09 14:18, 19.26
2017/05/09 14:38, 18.92
2017/05/09 14:58, 19.73
2017/05/09 15:18, 19.60
2017/05/09 15:38, 18.74
2017/05/09 15:58, 19.63
2017/05/09 16:18, 19.49
2017/05/09 16:38, 19.33
2017/05/09 16:58, 19.34
2017/05/09 17:18, 18.28
2017/05/09 17:38, 19.67
2017/05/09 17:58, 20.14
2017/05/09 18:18, 19.77
2017/05/09 18:38, 19.70
2017/05/09 18:58, 19.01
2017/05/09 19:18, 18.28
2017/05/09 19:38, 18.62
2017/05/09 19:58, 18.68
2017/05/09 20:18, 20.35
2017/05/09 20:38, 19.69
2017/05/09 20:58, 17.89
2017/05/09 21:18, 20.31
2017/05/09 21:38, 18.68
2017/05/09 21:58, 20.03
2017/05/09 22:18, 20.70
2017/05/09 22:38, 16.80
2017/05/09 22:58, 13.61
2017/05/09 23:18, 13.10
2017/05/09 23:38, 12.63
2017/05/09 23:58, 12.23
2017/05/10 00:18, 12.20
2017/05/10 00:38, 12.04
2017/05/10 00:58, 11.97
2017/05/10 01:18, 0.70
2017/05/10 01:38, 0.38
2017/05/10 01:58, 0.38
2017/05/10 02:18, 0.38
2017/05/10 02:38, 0.38
2017/05/10 02:58, 0.38
2017/05/10 03:18, 0.38
2017/05/10 03:38, 0.38
2017/05/10 03:58, 0.38
2017/05/10 04:18, 0.38
2017/05/10 04:38, 0.38
2017/05/10 04:58, 0.38
2017/05/10 05:18, 0.38
2017/05/10 05:38, 0.38
2017/05/10 05:58, 0.38
2017/05/10 06:18, 0.38
2017/05/10 06:38, 0.38
2017/05/10 06:58, 0.38
2017/05/10 07:18, 0.38
2017/05/10 07:38, 0.38
2017/05/10 07:58, 0.38
2017/05/10 08:18, 0.38
2017/05/10 08:38, 0.38
2017/05/10 08:58, 0.38
2017/05/10 09:18, 0.38
2017/05/10 09:38, 0.38
2017/05/10 09:58, 11.73
2017/05/10 10:18, 11.73
2017/05/10 10:38, 11.72
2017/05/10 10:58, 11.74
2017/05/10 11:18, 12.01
2017/05/10 11:38, 12.20
2017/05/10 11:58, 12.01
2017/05/10 12:18, 12.23
2017/05/10 12:38, 12.54
2017/05/10 12:58, 12.75
2017/05/10 13:18, 13.12
2017/05/10 13:38, 13.10
2017/05/10 13:58, 13.27
2017/05/10 14:18, 13.91
2017/05/10 14:38, 15.33
2017/05/10 14:58, 16.72
2017/05/10 15:18, 17.94
2017/05/10 15:38, 18.47
2017/05/10 15:58, 18.71
2017/05/10 16:18, 17.95
2017/05/10 16:38, 18.66
2017/05/10 16:58, 18.88
2017/05/10 17:18, 18.72
2017/05/10 17:38, 18.85
2017/05/10 17:58, 18.84
2017/05/10 18:18, 18.45
2017/05/10 18:38, 19.16
2017/05/10 18:58, 19.18
2017/05/10 19:18, 18.97
2017/05/10 19:38, 18.02
2017/05/10 19:58, 18.69
2017/05/10 20:18, 18.62
2017/05/10 20:38, 19.28
2017/05/10 20:58, 19.53
2017/05/10 21:18, 18.94
2017/05/10 21:38, 15.89
2017/05/10 21:58, 15.65
2017/05/10 22:18, 14.64
2017/05/10 22:38, 14.60
2017/05/10 22:58, 13.72
2017/05/10 23:18, 13.80
2017/05/10 23:38, 13.50
2017/05/10 23:58, 12.40
2017/05/11 00:18, 12.22
2017/05/11 00:38, 12.05
2017/05/11 00:58, 11.98
2017/05/11 01:18, 0.38
2017/05/11 01:38, 0.38
2017/05/11 01:58, 0.38
2017/05/11 02:18, 0.38
2017/05/11 02:38, 0.38
2017/05/11 02:58, 0.38
2017/05/11 03:18, 0.38
2017/05/11 03:38, 0.38
2017/05/11 03:58, 0.38
2017/05/11 04:18, 0.38
2017/05/11 04:38, 0.38
2017/05/11 04:58, 0.38
2017/05/11 05:18, 0.38
2017/05/11 05:38, 0.38
2017/05/11 05:58, 0.38
2017/05/11 06:18, 0.38
2017/05/11 06:38, 0.38
2017/05/11 06:58, 0.38
2017/05/11 07:18, 0.38
2017/05/11 07:38, 0.38
2017/05/11 07:58, 0.38
2017/05/11 08:18, 0.38
2017/05/11 08:38, 0.38
2017/05/11 08:58, 0.38
2017/05/11 09:18, 0.38
2017/05/11 09:38, 0.38
2017/05/11 09:58, 3.38
2017/05/11 10:18, 11.74
2017/05/11 10:38, 11.74
2017/05/11 10:58, 11.79
2017/05/11 11:18, 11.92
2017/05/11 11:38, 12.02
2017/05/11 11:58, 12.23
2017/05/11 12:18, 12.24
2017/05/11 12:38, 12.67
2017/05/11 12:58, 13.31
2017/05/11 13:18, 14.20
2017/05/11 13:38, 15.71
2017/05/11 13:58, 16.18
2017/05/11 14:18, 17.33
2017/05/11 14:38, 18.30
2017/05/11 14:58, 18.14
2017/05/11 15:18, 19.00
2017/05/11 15:38, 18.66
2017/05/11 15:58, 18.63
2017/05/11 16:18, 18.75
2017/05/11 16:38, 18.67
2017/05/11 16:58, 18.31
2017/05/11 17:18, 17.68
2017/05/11 17:38, 18.17
2017/05/11 17:58, 18.63
2017/05/11 18:18, 18.86
2017/05/11 18:38, 19.35
2017/05/11 18:58, 19.49
2017/05/11 19:18, 19.42
2017/05/11 19:38, 19.64
2017/05/11 19:58, 19.69
2017/05/11 20:18, 19.68
2017/05/11 20:38, 19.81
2017/05/11 20:58, 19.91
2017/05/11 21:18, 19.89
2017/05/11 21:38, 19.96
2017/05/11 21:58, 20.03
2017/05/11 22:18, 20.08
2017/05/11 22:38, 20.09
2017/05/11 22:58, 19.94
2017/05/11 23:18, 18.67
2017/05/11 23:38, 19.78
2017/05/11 23:58, 19.15
2017/05/12 00:18, 17.75
2017/05/12 00:38, 13.32
2017/05/12 00:58, 12.23
2017/05/12 01:18, 3.76
2017/05/12 01:38, 0.38
2017/05/12 01:58, 0.38
2017/05/12 02:18, 0.38
2017/05/12 02:38, 0.38
2017/05/12 02:58, 0.38
2017/05/12 03:18, 0.38
2017/05/12 03:38, 0.38
2017/05/12 03:58, 0.38
2017/05/12 04:18, 0.38
2017/05/12 04:38, 0.38
2017/05/12 04:58, 0.38
2017/05/12 05:18, 0.38
2017/05/12 05:38, 0.38
2017/05/12 05:58, 0.38
2017/05/12 06:18, 0.38
2017/05/12 06:38, 0.38
2017/05/12 06:58, 0.38
2017/05/12 07:18, 0.38
2017/05/12 07:38, 0.38
2017/05/12 07:58, 0.38
2017/05/12 08:18, 0.38
2017/05/12 08:38, 0.38
2017/05/12 08:58, 0.38
2017/05/12 09:18, 0.38
2017/05/12 09:38, 1.98
2017/05/12 09:58, 11.79
2017/05/12 10:18, 12.22
2017/05/12 10:38, 13.61
2017/05/12 10:58, 15.55
2017/05/12 11:18, 17.44
2017/05/12 11:38, 18.08
2017/05/12 11:58, 18.94
2017/05/12 12:18, 19.15
2017/05/12 12:38, 18.83
2017/05/12 12:58, 19.14
2017/05/12 13:18, 19.18
2017/05/12 13:38, 19.08
2017/05/12 13:58, 19.32
2017/05/12 14:18, 19.29
2017/05/12 14:38, 19.36
2017/05/12 14:58, 19.37
2017/05/12 15:18, 19.36
2017/05/12 15:38, 19.35
2017/05/12 15:58, 19.36
2017/05/12 16:18, 19.32
2017/05/12 16:38, 19.22
2017/05/12 16:58, 19.06
2017/05/12 17:18, 19.19
2017/05/12 17:38, 19.02
2017/05/12 17:58, 19.07
2017/05/12 18:18, 19.20
2017/05/12 18:38, 19.39
2017/05/12 18:58, 19.38
2017/05/12 19:18, 19.48
2017/05/12 19:38, 19.88
2017/05/12 19:58, 19.95
2017/05/12 20:18, 19.97
2017/05/12 20:38, 20.12
2017/05/12 20:58, 20.03
2017/05/12 21:18, 20.07
2017/05/12 21:38, 19.83
2017/05/12 21:58, 19.73
2017/05/12 22:18, 19.95
2017/05/12 22:38, 20.00
2017/05/12 22:58, 16.54
2017/05/12 23:18, 15.72
2017/05/12 23:38, 15.11
2017/05/12 23:58, 19.32
2017/05/13 00:18, 17.62
2017/05/13 00:38, 12.83
2017/05/13 00:58, 12.14
2017/05/13 01:18, 3.84
2017/05/13 01:38, 0.38
2017/05/13 01:58, 0.38
2017/05/13 02:18, 0.38
2017/05/13 02:38, 0.38
2017/05/13 02:58, 0.38
2017/05/13 03:18, 0.38
2017/05/13 03:38, 0.38
2017/05/13 03:58, 0.38
2017/05/13 04:18, 0.38
2017/05/13 04:38, 0.38
2017/05/13 04:58, 0.38
2017/05/13 05:18, 0.38
2017/05/13 05:38, 0.38
2017/05/13 05:58, 0.38
2017/05/13 06:18, 0.38
2017/05/13 06:38, 0.38
2017/05/13 06:58, 0.38
2017/05/13 07:18, 0.38
2017/05/13 07:38, 0.38
2017/05/13 07:58, 0.38
2017/05/13 08:18, 0.38
2017/05/13 08:38, 0.38
2017/05/13 08:58, 0.38
2017/05/13 09:18, 0.38
2017/05/13 09:38, 2.12
2017/05/13 09:58, 11.74
2017/05/13 10:18, 12.06
2017/05/13 10:38, 13.72
2017/05/13 10:58, 16.60
2017/05/13 11:18, 17.28
2017/05/13 11:38, 17.74
2017/05/13 11:58, 17.56
2017/05/13 12:18, 19.02
2017/05/13 12:38, 14.93
2017/05/13 12:58, 13.81
2017/05/13 13:18, 15.25
2017/05/13 13:38, 13.95
2017/05/13 13:58, 14.62
2017/05/13 14:18, 15.98
2017/05/13 14:38, 18.17
2017/05/13 14:58, 18.46
2017/05/13 15:18, 19.46
2017/05/13 15:38, 17.77
2017/05/13 15:58, 16.77
2017/05/13 16:18, 13.92
2017/05/13 16:38, 13.67
2017/05/13 16:58, 15.81
2017/05/13 17:18, 17.04
2017/05/13 17:38, 16.94
2017/05/13 17:58, 17.87
2017/05/13 18:18, 18.17
2017/05/13 18:38, 17.50
2017/05/13 18:58, 15.44
2017/05/13 19:18, 15.04
2017/05/13 19:38, 13.60
2017/05/13 19:58, 18.65
2017/05/13 20:18, 20.72
2017/05/13 20:38, 19.10
2017/05/13 20:58, 20.26
2017/05/13 21:18, 18.34
2017/05/13 21:38, 20.37
2017/05/13 21:58, 20.50
2017/05/13 22:18, 20.17
2017/05/13 22:38, 15.52
2017/05/13 22:58, 13.42
2017/05/13 23:18, 12.62
2017/05/13 23:38, 12.23
2017/05/13 23:58, 12.23
2017/05/14 00:18, 12.23
2017/05/14 00:38, 12.29
2017/05/14 00:58, 12.03
2017/05/14 01:18, 2.06
2017/05/14 01:38, 0.38
2017/05/14 01:58, 0.38
2017/05/14 02:18, 0.38
2017/05/14 02:38, 0.38
2017/05/14 02:58, 0.38
2017/05/14 03:18, 0.38
2017/05/14 03:38, 0.38
2017/05/14 03:58, 0.38
2017/05/14 04:18, 0.38
2017/05/14 04:38, 0.38
2017/05/14 04:58, 0.38
2017/05/14 05:18, 0.38
2017/05/14 05:38, 0.38
2017/05/14 05:58, 0.38
2017/05/14 06:18, 0.38
2017/05/14 06:38, 0.38
2017/05/14 06:58, 0.38
2017/05/14 07:18, 0.38
2017/05/14 07:38, 0.38
2017/05/14 07:58, 0.38
2017/05/14 08:18, 0.38
2017/05/14 08:38, 0.38
2017/05/14 08:58, 0.38
2017/05/14 09:18, 0.38
2017/05/14 09:38, 2.55
2017/05/14 09:58, 11.74
2017/05/14 10:18, 12.00
2017/05/14 10:38, 12.94
2017/05/14 10:58, 12.22
2017/05/14 11:18, 12.05
2017/05/14 11:38, 12.23
2017/05/14 11:58, 12.23
2017/05/14 12:18, 12.23
2017/05/14 12:38, 12.22
2017/05/14 12:58, 12.23
2017/05/14 13:18, 12.34
2017/05/14 13:38, 12.83
2017/05/14 13:58, 12.91
2017/05/14 14:18, 13.31
2017/05/14 14:38, 13.79
2017/05/14 14:58, 13.66
2017/05/14 15:18, 13.83
2017/05/14 15:38, 15.46
2017/05/14 15:58, 17.36
2017/05/14 16:18, 17.21
2017/05/14 16:38, 17.57
2017/05/14 16:58, 18.64
2017/05/14 17:18, 17.37
2017/05/14 17:38, 17.52
2017/05/14 17:58, 17.92
2017/05/14 18:18, 19.02
2017/05/14 18:38, 17.03
2017/05/14 18:58, 19.04
2017/05/14 19:18, 18.89
2017/05/14 19:38, 19.04
2017/05/14 19:58, 19.40
2017/05/14 20:18, 19.56
2017/05/14 20:38, 19.78
2017/05/14 20:58, 19.86
2017/05/14 21:18, 19.89
2017/05/14 21:38, 20.09
2017/05/14 21:58, 20.17
2017/05/14 22:18, 20.13
2017/05/14 22:38, 20.23
2017/05/14 22:58, 20.18
2017/05/14 23:18, 20.08
2017/05/14 23:38, 19.94
2017/05/14 23:58, 19.63
2017/05/15 00:18, 18.50
2017/05/15 00:38, 15.86
2017/05/15 00:58, 12.23
2017/05/15 01:18, 11.39
2017/05/15 01:38, 0.38
2017/05/15 01:58, 0.38
2017/05/15 02:18, 0.38
2017/05/15 02:38, 0.38
2017/05/15 02:58, 0.38
2017/05/15 03:18, 0.38
2017/05/15 03:38, 0.38
2017/05/15 03:58, 0.38
2017/05/15 04:18, 0.38
2017/05/15 04:38, 0.38
2017/05/15 04:58, 0.38
2017/05/15 05:18, 0.38
2017/05/15 05:38, 0.38
2017/05/15 05:58, 0.38
2017/05/15 06:18, 0.38
2017/05/15 06:38, 0.38
2017/05/15 06:58, 0.38
2017/05/15 07:18, 0.38
2017/05/15 07:38, 0.38
2017/05/15 07:58, 0.38
2017/05/15 08:18, 0.38
2017/05/15 08:38, 0.38
2017/05/15 08:58, 0.38
2017/05/15 09:18, 0.38
2017/05/15 09:38, 4.43
2017/05/15 09:58, 11.81
2017/05/15 10:18, 12.83
2017/05/15 10:38, 15.15
2017/05/15 10:58, 17.34
2017/05/15 11:18, 18.14
2017/05/15 11:38, 18.75
2017/05/15 11:58, 18.73
2017/05/15 12:18, 18.84
2017/05/15 12:38, 18.87
2017/05/15 12:58, 18.73
2017/05/15 13:18, 18.73
2017/05/15 13:38, 18.93
2017/05/15 13:58, 19.00
2017/05/15 14:18, 18.83
2017/05/15 14:38, 18.58
2017/05/15 14:58, 18.93
2017/05/15 15:18, 18.78
2017/05/15 15:38, 18.97
2017/05/15 15:58, 19.11
2017/05/15 16:18, 19.13
2017/05/15 16:38, 19.11
2017/05/15 16:58, 19.20
2017/05/15 17:18, 19.20
2017/05/15 17:38, 19.25
2017/05/15 17:58, 19.30
2017/05/15 18:18, 19.17
2017/05/15 18:38, 19.26
2017/05/15 18:58, 19.35
2017/05/15 19:18, 19.43
2017/05/15 19:38, 19.55
2017/05/15 19:58, 19.60
2017/05/15 20:18, 19.68
2017/05/15 20:38, 19.51
2017/05/15 20:58, 20.01
2017/05/15 21:18, 19.43
2017/05/15 21:38, 19.06
2017/05/15 21:58, 20.05
2017/05/15 22:18, 19.90
2017/05/15 22:38, 19.88
2017/05/15 22:58, 19.52
2017/05/15 23:18, 19.21
2017/05/15 23:38, 18.86
2017/05/15 23:58, 15.30
2017/05/16 00:18, 12.92
2017/05/16 00:38, 12.23
2017/05/16 00:58, 12.05
2017/05/16 01:18, 2.06
2017/05/16 01:38, 0.38
2017/05/16 01:58, 0.38
2017/05/16 02:18, 0.38
2017/05/16 02:38, 0.38
2017/05/16 02:58, 0.38
2017/05/16 03:18, 0.38
2017/05/16 03:38, 0.38
2017/05/16 03:58, 0.38
2017/05/16 04:18, 0.38
2017/05/16 04:38, 0.38
2017/05/16 04:58, 0.38
2017/05/16 05:18, 0.38
2017/05/16 05:38, 0.38
2017/05/16 05:58, 0.38
2017/05/16 06:18, 0.38
2017/05/16 06:38, 0.38
2017/05/16 06:58, 0.38
2017/05/16 07:18, 0.38
2017/05/16 07:38, 0.38
2017/05/16 07:58, 0.38
2017/05/16 08:18, 0.38
2017/05/16 08:38, 0.38
2017/05/16 08:58, 0.38
2017/05/16 09:18, 0.38
2017/05/16 09:38, 0.38
2017/05/16 09:58, 1.94
2017/05/16 10:18, 11.74
2017/05/16 10:38, 11.74
2017/05/16 10:58, 11.77
2017/05/16 11:18, 11.86
2017/05/16 11:38, 12.22
2017/05/16 11:58, 12.62
2017/05/16 12:18, 12.62
2017/05/16 12:38, 13.38
2017/05/16 12:58, 14.40
2017/05/16 13:18, 18.22
2017/05/16 13:38, 18.31
2017/05/16 13:58, 14.79
2017/05/16 14:18, 18.28
2017/05/16 14:38, 15.77
2017/05/16 14:58, 16.21
2017/05/16 15:18, 15.52
2017/05/16 15:38, 17.77
2017/05/16 15:58, 16.69
2017/05/16 16:18, 17.78
2017/05/16 16:38, 18.48
2017/05/16 16:58, 18.23
2017/05/16 17:18, 18.82
2017/05/16 17:38, 18.78
2017/05/16 17:58, 19.11
2017/05/16 18:18, 18.85
2017/05/16 18:38, 18.96
2017/05/16 18:58, 18.62
2017/05/16 19:18, 18.84
2017/05/16 19:38, 17.08
2017/05/16 19:58, 19.31
2017/05/16 20:18, 18.89
2017/05/16 20:38, 19.10
2017/05/16 20:58, 19.25
2017/05/16 21:18, 19.10
2017/05/16 21:38, 18.58